Voltar ao catálogo

STARLINK-32248

AtivoComunicaçõesVLEO
NORAD 61219·PAYLOAD·🇺🇸 United States

Lançado Sep 20, 2024 de Vandenberg Space Force Base

Loading…

Próximas Passagens (próximas 24 horas)

TLE

AtualizadoSource: CelesTrak SupGP

Época: Sep 14, 2026, 21:29 UTC

1 61219C 24171V   26257.89562500 -.00024774  00000+0 -79648-3 0  2570
2 61219  53.1573 162.5648 0001311  92.1005 185.7509 15.31721946    15

Acompanhe STARLINK-32248 em tempo real com AllMySat

Download on the App Store